User: anonymous   Login
Location: Helsinki
(60.1699°N, 24.9384°E)
Time: 02:18:36
(UTC+02:00)
Language:

Vanguard 2 Rocket - Orbit

View from above orbital plane
View from above orbital plane
View from above satellite
View from above satellite

Ground track
Ground track

The orbit data is extracted from the following two-line orbital elements,

1    12U 59001B   20300.57687350  .00000378  00000-0  22991-3 0  9998
2    12  32.8980 252.2152 1666300  45.3173 327.1681 11.44341314537581
Epoch (UTC): 26 October 2020 13:50:41
Eccentricity: 0.1666300
inclination: 32.8980°
perigee height: 554 km
apogee height: 3326 km
right ascension of ascending node: 252.2152°
argument of perigee: 45.3173°
revolutions per day: 11.44341314
mean anomaly at epoch: 327.1681°
orbit number at epoch: 53758

The dashed part of the orbit path shows where the satellite is in the earth's shadow,  

DLR